Flag for Switzerland Weather past 2 weeks in Stäfa, Zurich, Switzerland

Now
59 °F

Cool.


Feels Like: 59 °F
Forecast: 62 / 77 °F
Wind: 5 mph from Southwest

Location: Zurich Town / Ville.

Current Time: Jul 30, 2014 at 11:52:44 AM

Latest Report: Jul 30, 2014 at 11:00 AM


Visibility: N/A

Pressure: 29.85 "Hg

Humidity: 95%

Dew point: 58 °F

Location of StäfaLocation

Historic Weather in Stäfa — Graph

°F

Stäfa temperature yesterday

Maximum temperature yesterday: 66 °F (at 4:00 PM)
Minimum temperature yesterday: 56 °F (at 7:00 AM)
Average temperature yesterday: 60 °F

Past Weeks' High & Low Weather Summary

 TemperatureHumidityPressure
High87 °F (Jul 19, 6:00 PM)99% (Jul 23, 1:00 AM)30.19 "Hg (Jul 23, 1:00 AM)
Low56 °F (Jul 29, 7:00 AM)25% (Jul 18, 3:00 PM)29.72 "Hg (Jul 28, 5:00 PM)
Average66 °F75%29.95 "Hg
* Reported Jul 15 10:00 AM — Jul 30 10:00 AM, Stäfa, Weather by CustomWeather, © 2014

Note: Actual official high and low records may vary slightly from our data, if they occured in-between our weather recording intervals... More about our weather records

Advertising

Stäfa weather history for previous 24 hours

 ConditionsComfort  
Time TempWeatherWind HumidityBarometerVisibility
10:00 AM
Jul 30
59 °FCool.6 mph97%29.86 "HgN/A
9:00 AM59 °FCool.6 mph96%29.85 "HgN/A
8:00 AM60 °FOvercast.2 mph92%29.83 "HgN/A
7:00 AM60 °FCool.3 mph88%29.82 "HgN/A
6:00 AM60 °FCool.2 mph90%29.82 "HgN/A
5:00 AM60 °FCool.5 mph90%29.82 "HgN/A
4:00 AM59 °FCool.5 mph92%29.81 "HgN/A
3:00 AM60 °FCool.5 mph89%29.83 "HgN/A
2:00 AM60 °FCool.5 mph89%29.83 "HgN/A
1:00 AM60 °FCool.2 mph88%29.83 "HgN/A
12:00 AM61 °FCool.5 mph87%29.83 "HgN/A
11:00 PM
Jul 29
62 °FCool.5 mph85%29.83 "HgN/A
10:00 PM62 °FCool.3 mph86%29.82 "HgN/A
9:00 PM64 °FMild.3 mph79%29.80 "HgN/A
8:00 PM65 °FPartly sunny.5 mph75%29.79 "HgN/A
7:00 PM65 °FMild.5 mph74%29.78 "HgN/A
6:00 PM65 °FMild.5 mph77%29.78 "HgN/A
5:00 PM65 °FMild.6 mph74%29.77 "HgN/A
4:00 PM66 °FMild.5 mph73%29.77 "HgN/A
3:00 PM64 °FMild.2 mph76%29.79 "HgN/A
2:00 PM63 °FOvercast.2 mph88%29.80 "HgN/A
1:00 PM61 °FCool.2 mph89%29.80 "HgN/A
12:00 PM59 °FCool.3 mph93%29.81 "HgN/A
11:00 AM58 °FCool.3 mph95%29.82 "HgN/A
Weather by CustomWeather, © 2014

See weather overviewHow to use our weather pages